Weather History for KBWD - November, 2013

Change the Weather History Date:

Sunday, November 3, 2013

  Actual Average (KABI) Record (KABI)
Temperature  
Mean Temperature 52 °F 60 °F  
Max Temperature 66 °F 72 °F 87 °F (1988)
Min Temperature 37 °F 48 °F 21 °F (1991)
Degree Days  
Heating Degree Days 14 7  
Month to date heating degree days 19  
Since 1 July heating degree days 123  
Cooling Degree Days 0 1  
Month to date cooling degree days 5  
Year to date cooling degree days 2394  
Growing Degree Days 2 (Base 50)    
Moisture  
Dew Point 38 °F    
Average Humidity 61    
Maximum Humidity 100    
Minimum Humidity 32    
Precipitation  
Precipitation 0.00 in 0.07 in 0.90 in (1938)
Month to date precipitation 0.20  
Year to date precipitation 22.38  
Sea Level Pressure  
Sea Level Pressure 30.10 in    
Wind  
Wind Speed 6 mph (SSE)    
Max Wind Speed 18 mph    
Max Gust Speed 24 mph    
Visibility 10 miles    
Events Rain    
T = Trace of Precipitation, MM = Missing Value Source: NWS Daily Summary

Daily Weather History Graph

Daily Weather History Graph

Search for Another Location

Airport or City:

Trip Planner

Search our weather history database for the weather conditions in past years. The results will help you decide how hot, cold, wet, or windy it might be!

Date:

Astronomy

Nov. 03, 2013 Rise Set
Actual Time 6:54 AM CST 5:44 PM CST
Civil Twilight 6:28 AM CST 6:09 PM CST
Nautical Twilight 5:59 AM CST 6:38 PM CST
Astronomical Twilight 5:31 AM CST 7:07 PM CST
Moon 6:58 AM CST 6:02 PM CST
Length of Visible Light 11h 40m
Length of Day
10h 50m
New Moon, 0% of the Moon is Illuminated
Nov 3
New Moon
Nov 9
First Quarter
Nov 17
Full
Nov 25
Last Quarter
Dec 2
New

Hourly Weather History & Observations

Time (CST) Temp. Windchill Dew Point Humidity Pressure Visibility Wind Dir Wind Speed Gust Speed Precip Events Conditions
12:15 AM 41.0 °F - 37.4 °F 87% 30.24 in 10.0 mi Calm Calm - N/A   Unknown
12:35 AM 41.0 °F - 39.2 °F 93% 30.23 in 10.0 mi Calm Calm - N/A   Unknown
12:55 AM 41.0 °F - 37.4 °F 87% 30.22 in 10.0 mi Calm Calm - N/A   Clear
1:15 AM 41.0 °F - 37.4 °F 87% 30.21 in 10.0 mi Calm Calm - N/A   Clear
1:35 AM 41.0 °F - 39.2 °F 93% 30.21 in 10.0 mi Calm Calm - N/A   Clear
1:55 AM 41.0 °F - 39.2 °F 93% 30.20 in 10.0 mi Calm Calm - N/A   Clear
1:15 AM 39.2 °F - 39.2 °F 100% 30.19 in 10.0 mi North - - N/A   Unknown
1:35 AM 39.2 °F - 39.2 °F 100% 30.19 in 10.0 mi North - - N/A   Unknown
1:55 AM 37.4 °F - 37.4 °F 100% 30.18 in 10.0 mi North - - N/A   Unknown
2:15 AM 39.2 °F - 37.4 °F 93% 30.18 in 10.0 mi North - - N/A   Unknown
2:35 AM 37.4 °F 30.8 °F 37.4 °F 100% 30.18 in 10.0 mi WSW 9.2 mph - N/A   Unknown
2:55 AM 39.2 °F - 39.2 °F 100% 30.18 in 10.0 mi Calm Calm - N/A   Clear
3:15 AM 39.2 °F 34.2 °F 39.2 °F 100% 30.17 in 10.0 mi SE 6.9 mph - N/A   Clear
3:35 AM 39.2 °F 35.9 °F 37.4 °F 93% 30.17 in 10.0 mi East 4.6 mph - N/A   Unknown
3:55 AM 41.0 °F - 37.4 °F 87% 30.17 in 10.0 mi Calm Calm - N/A   Clear
4:15 AM 41.0 °F - 37.4 °F 87% 30.17 in 10.0 mi Calm Calm - N/A   Clear
4:35 AM 41.0 °F 39.0 °F 37.4 °F 87% 30.17 in 10.0 mi ESE 3.5 mph - N/A   Clear
4:55 AM 39.2 °F 37.0 °F 35.6 °F 87% 30.17 in 10.0 mi East 3.5 mph - N/A   Clear
5:15 AM 37.4 °F - 37.4 °F 100% 30.17 in 10.0 mi Calm Calm - N/A   Clear
5:35 AM 37.4 °F - 37.4 °F 100% 30.16 in 10.0 mi Calm Calm - N/A   Unknown
5:55 AM 41.0 °F - 37.4 °F 87% 30.16 in 10.0 mi Calm Calm - N/A   Unknown
6:15 AM 39.2 °F - 35.6 °F 87% 30.16 in 10.0 mi Calm Calm - N/A   Clear
6:35 AM 39.2 °F - 35.6 °F 87% 30.15 in 10.0 mi Calm Calm - N/A   Unknown
6:55 AM 39.2 °F - 35.6 °F 87% 30.15 in 10.0 mi Calm Calm - N/A   Clear
7:15 AM 39.2 °F - 37.4 °F 93% 30.15 in 10.0 mi Calm Calm - N/A   Clear
7:35 AM 41.0 °F - 37.4 °F 87% 30.15 in 10.0 mi Calm Calm - N/A   Clear
7:55 AM 44.6 °F - 39.2 °F 81% 30.16 in 10.0 mi Calm Calm - N/A   Clear
8:15 AM 46.4 °F 44.3 °F 41.0 °F 81% 30.16 in 10.0 mi SSW 4.6 mph - N/A   Clear
8:35 AM 50.0 °F - 37.4 °F 62% 30.16 in 10.0 mi SSE 9.2 mph - N/A   Clear
8:55 AM 53.6 °F - 37.4 °F 54% 30.16 in 10.0 mi SSE 13.8 mph 19.6 mph N/A   Clear
9:15 AM 55.4 °F - 35.6 °F 47% 30.16 in 10.0 mi SSE 12.7 mph 20.7 mph N/A   Clear
9:35 AM 57.2 °F - 35.6 °F 44% 30.17 in 10.0 mi SSE 16.1 mph 19.6 mph N/A   Clear
9:55 AM 57.2 °F - 35.6 °F 44% 30.16 in 10.0 mi SSE 16.1 mph 23.0 mph N/A   Unknown
10:15 AM 57.2 °F - 35.6 °F 44% 30.16 in 10.0 mi SSE 15.0 mph 19.6 mph N/A   Unknown
10:35 AM 57.2 °F - 35.6 °F 44% 30.16 in 10.0 mi SSE 12.7 mph 17.3 mph N/A   Unknown
10:55 AM 59.0 °F - 35.6 °F 42% 30.16 in 10.0 mi South 11.5 mph 19.6 mph N/A   Unknown
11:15 AM 60.8 °F - 37.4 °F 42% 30.15 in 10.0 mi SE 12.7 mph - N/A   Unknown
11:35 AM 62.6 °F - 37.4 °F 39% 30.13 in 10.0 mi SSE 10.4 mph 17.3 mph N/A   Unknown
11:55 AM 64.4 °F - 35.6 °F 34% 30.13 in 10.0 mi SSE 13.8 mph 19.6 mph N/A   Clear
12:15 PM 64.4 °F - 35.6 °F 34% 30.10 in 10.0 mi SSE 13.8 mph - N/A   Clear
12:35 PM 66.2 °F - 35.6 °F 32% 30.08 in 10.0 mi SSE 16.1 mph - N/A   Unknown
12:55 PM 66.2 °F - 37.4 °F 35% 30.06 in 10.0 mi SSE 13.8 mph 20.7 mph N/A   Unknown
1:15 PM 64.4 °F - 35.6 °F 34% 30.05 in 10.0 mi SSE 16.1 mph 23.0 mph N/A   Unknown
1:35 PM 64.4 °F - 35.6 °F 34% 30.05 in 10.0 mi SSE 11.5 mph - N/A   Unknown
1:55 PM 64.4 °F - 37.4 °F 37% 30.04 in 10.0 mi SSE 12.7 mph - N/A   Unknown
2:15 PM 66.2 °F - 35.6 °F 32% 30.02 in 10.0 mi SSE 15.0 mph 19.6 mph N/A   Unknown
2:35 PM 66.2 °F - 35.6 °F 32% 30.01 in 10.0 mi SSE 13.8 mph 18.4 mph N/A   Unknown
2:55 PM 66.2 °F - 35.6 °F 32% 30.00 in 10.0 mi SSE 15.0 mph 20.7 mph N/A   Unknown
3:15 PM 64.4 °F - 35.6 °F 34% 30.00 in 10.0 mi SSE 11.5 mph 17.3 mph N/A   Unknown
3:35 PM 64.4 °F - 37.4 °F 37% 30.00 in 10.0 mi SSE 13.8 mph 19.6 mph N/A   Unknown
3:55 PM 64.4 °F - 37.4 °F 37% 30.01 in 10.0 mi SSE 10.4 mph 16.1 mph N/A   Unknown
4:15 PM 64.4 °F - 37.4 °F 37% 30.02 in 10.0 mi SSE 9.2 mph - N/A   Unknown
4:35 PM 62.6 °F - 37.4 °F 39% 30.02 in 10.0 mi SSE 8.1 mph - N/A   Unknown
4:55 PM 62.6 °F - 39.2 °F 42% 30.00 in 10.0 mi SSE 10.4 mph - N/A   Unknown
5:15 PM 62.6 °F - 39.2 °F 42% 30.00 in 10.0 mi SSE 9.2 mph - N/A   Unknown
5:35 PM 62.6 °F - 37.4 °F 39% 30.00 in 10.0 mi SSE 12.7 mph - N/A   Unknown
5:55 PM 62.6 °F - 37.4 °F 39% 29.99 in 10.0 mi SE 15.0 mph 21.9 mph N/A   Clear
6:15 PM 62.6 °F - 37.4 °F 39% 29.99 in 10.0 mi SSE 17.3 mph 20.7 mph N/A   Clear
6:35 PM 62.6 °F - 37.4 °F 39% 29.99 in 10.0 mi SSE 18.4 mph 24.2 mph N/A   Partly Cloudy
6:55 PM 60.8 °F - 39.2 °F 45% 30.01 in 10.0 mi South 11.5 mph 20.7 mph N/A Rain Light Rain
7:15 PM 60.8 °F - 39.2 °F 45% 30.02 in 10.0 mi South 12.7 mph - N/A   Clear
7:35 PM 59.0 °F - 41.0 °F 51% 30.01 in 10.0 mi SSE 13.8 mph - N/A Rain Light Rain
7:55 PM 59.0 °F - 41.0 °F 51% 30.00 in 10.0 mi SSE 15.0 mph 18.4 mph N/A   Clear
8:15 PM 59.0 °F - 41.0 °F 51% 30.00 in 10.0 mi SSE 12.7 mph 19.6 mph N/A   Clear
8:35 PM 59.0 °F - 41.0 °F 51% 30.00 in 10.0 mi SSE 10.4 mph - N/A   Clear
8:55 PM 59.0 °F - 41.0 °F 51% 29.98 in 10.0 mi SSE 10.4 mph 16.1 mph N/A   Partly Cloudy
9:15 PM 59.0 °F - 41.0 °F 51% 29.98 in 10.0 mi SSE 13.8 mph - N/A   Partly Cloudy
9:35 PM 59.0 °F - 41.0 °F 51% 29.96 in 10.0 mi SE 13.8 mph 18.4 mph N/A   Partly Cloudy
9:55 PM 59.0 °F - 39.2 °F 48% 29.95 in 10.0 mi SE 12.7 mph - N/A   Partly Cloudy
10:15 PM 59.0 °F - 37.4 °F 45% 29.93 in 10.0 mi SSE 15.0 mph 20.7 mph N/A   Scattered Clouds
10:35 PM 59.0 °F - 37.4 °F 45% 29.99 in 10.0 mi West 8.1 mph - N/A   Partly Cloudy
10:55 PM 59.0 °F - 37.4 °F 45% 30.01 in 10.0 mi SSW 6.9 mph - N/A   Scattered Clouds